Weather in Sazhino

Russia / Kurgan Oblast     55°05′56″N   63°21′06″E
temp.,
°C
wind,
m/s
gust,
m/s
humid.,
%
clouds,
%
prec.,
mm/h
press.,
hPa
HPBL,
m
12 may, wed
wed1223:00+16sw0032100 0.0 102711
02:00+14sw22360 0.0 102711
05:00+12w334343 0.0 102834
08:00+17w463719 0.0 1028252
11:00+23nw56315 0.0 1027948
14:00+25nw563282 0.0 10262657
17:00+25nnw673426 0.0 10262407
20:00+20nne344915 0.0 102653
13 may, thu
thu1323:00+16ne335863 0.0 102744
02:00+14ene126017 0.0 102711
05:00+13w116275 0.0 102710
08:00+19wnw2349100 0.0 1027281
11:00+23nw453710 0.0 10271348
14:00+26nw56325 0.0 10252016
17:00+26nnw57285 0.0 10252238
20:00+22nnw23425 0.0 102519
14 may, fri
fri1423:00+19nnw11485 0.0 102611
02:00+16ene22565 0.0 102611
05:00+15sse126431 0.0 102811
08:00+21s22485 0.0 1028220
11:00+26wsw33320 0.0 10271724
14:00+28w34250 0.0 10262657
17:00+29w45255 0.0 10252945
20:00+25sw344043 0.0 102443
15 may, sat
sat1523:00+21wsw334297 0.0 102436
02:00+20nw22485 0.1 102313
05:00+17nw35545 0.1 102469
08:00+22wnw34444 0.1 1025250
11:00+27wnw45335 0.1 10241343
14:00+29wnw45275 0.0 10232278
17:00+29wnw452675 0.0 10222599
20:00+25wsw33385 0.0 102119
16 may, sun
sun1623:00+20w410535 0.4 1022162
02:00+19nw4657100 0.1 102187
05:00+17nw336024 0.1 102236
08:00+23w344623 0.0 1022265
11:00+28w34315 0.0 10211202
14:00+30w44255 0.0 10202201
17:00+30w44232 0.0 10193091
20:00+26w23360 0.0 101818